Weather History for KOXC - September, 2013

Change the Weather History Date:

Thursday, September 5, 2013

  Actual Average Record
Temperature  
Mean Temperature 61 °F -  
Max Temperature 69 °F 72 °F 82 °F (2014)
Min Temperature 53 °F 55 °F 42 °F (1997)
Degree Days  
Heating Degree Days 4    
Growing Degree Days 11 (Base 50)    
Moisture  
Dew Point 50 °F    
Average Humidity 68    
Maximum Humidity 88    
Minimum Humidity 43    
Precipitation  
Precipitation 0.00 in - - ()
Sea Level Pressure  
Sea Level Pressure 30.02 in    
Wind  
Wind Speed 4 mph (NNW)    
Max Wind Speed 16 mph    
Max Gust Speed 25 mph    
Visibility 10 miles    
Events      
Averages and records for this station are not official NWS values.
T = Trace of Precipitation, MM = Missing Value Source: NWS Daily Summary

Daily Weather History Graph

Daily Weather History Graph

Search for Another Location

Airport or City:

Trip Planner

Search our weather history database for the weather conditions in past years. The results will help you decide how hot, cold, wet, or windy it might be!

Date:

Astronomy

Sep. 05, 2013 Rise Set
Actual Time 6:22 AM EDT 7:18 PM EDT
Civil Twilight 5:54 AM EDT 7:46 PM EDT
Nautical Twilight 5:21 AM EDT 8:20 PM EDT
Astronomical Twilight 4:46 AM EDT 8:54 PM EDT
Moon 6:32 AM EDT (9/5) 7:07 PM EDT (9/5)
Length of Visible Light 13h 51m
Length of Day
12h 55m
New Moon, 0% of the Moon is Illuminated
Sep 5
New Moon
Sep 12
First Quarter
Sep 19
Full
Sep 26
Last Quarter
Oct 4
New

Hourly Weather History & Observations

Time (EDT) Temp. Dew Point Humidity Pressure Visibility Wind Dir Wind Speed Gust Speed Precip Events Conditions
12:15 AM 60.8 °F 53.6 °F 77% 29.97 in 10.0 mi South 3.5 mph - N/A   Clear
12:35 AM 60.8 °F 53.6 °F 77% 29.97 in 10.0 mi Calm Calm - N/A   Clear
12:55 AM 60.8 °F 53.6 °F 77% 29.96 in 10.0 mi SSW 3.5 mph - N/A   Clear
1:15 AM 60.8 °F 53.6 °F 77% 29.96 in 10.0 mi SW 3.5 mph - N/A   Clear
1:35 AM 60.8 °F 55.4 °F 82% 29.96 in 10.0 mi WSW 3.5 mph - N/A   Clear
1:55 AM 60.8 °F 53.6 °F 77% 29.95 in 10.0 mi WSW 3.5 mph - N/A   Clear
2:15 AM 62.6 °F 55.4 °F 77% 29.95 in 10.0 mi West 3.5 mph - N/A   Clear
2:35 AM 62.6 °F 55.4 °F 77% 29.95 in 10.0 mi WSW 3.5 mph - N/A   Clear
2:55 AM 60.8 °F 55.4 °F 82% 29.95 in 10.0 mi Calm Calm - N/A   Clear
3:15 AM 60.8 °F 53.6 °F 77% 29.94 in 10.0 mi Calm Calm - N/A   Clear
3:35 AM 60.8 °F 53.6 °F 77% 29.94 in 10.0 mi Calm Calm - N/A   Clear
3:55 AM 57.2 °F 53.6 °F 88% 29.94 in 10.0 mi Calm Calm - N/A   Clear
4:15 AM 57.2 °F 51.8 °F 82% 29.93 in 10.0 mi Calm Calm - N/A   Clear
4:35 AM 57.2 °F 53.6 °F 88% 29.94 in 10.0 mi Calm Calm - N/A   Clear
4:55 AM 57.2 °F 53.6 °F 88% 29.95 in 10.0 mi Calm Calm - N/A   Clear
5:15 AM 57.2 °F 53.6 °F 88% 29.95 in 10.0 mi Calm Calm - N/A   Scattered Clouds
5:35 AM 57.2 °F 53.6 °F 88% 29.94 in 10.0 mi Calm Calm - N/A   Mostly Cloudy
5:45 AM 57.2 °F 53.6 °F 88% 29.95 in 10.0 mi Calm Calm - N/A   Mostly Cloudy
6:45 AM 59.0 °F 53.6 °F 82% 29.96 in 10.0 mi Calm Calm - N/A   Mostly Cloudy
7:45 AM 62.6 °F 55.4 °F 77% 29.97 in 10.0 mi Calm Calm - N/A   Mostly Cloudy
8:45 AM 64.4 °F 55.4 °F 73% 29.98 in 10.0 mi Calm Calm - N/A   Mostly Cloudy
9:45 AM 68.0 °F 57.2 °F 68% 30.00 in 10.0 mi North 11.5 mph 16.1 mph N/A   Scattered Clouds
10:45 AM 68.0 °F 53.6 °F 60% 30.01 in 10.0 mi North 12.7 mph 25.3 mph N/A   Scattered Clouds
11:45 AM 69.8 °F 51.8 °F 53% 30.01 in 10.0 mi NNW 9.2 mph 17.3 mph N/A   Partly Cloudy
12:50 PM 69.8 °F 51.8 °F 53% 30.02 in 10.0 mi North 11.5 mph - N/A   Partly Cloudy
1:45 PM 69.8 °F 50.0 °F 49% 30.02 in 10.0 mi North 11.5 mph 18.4 mph N/A   Scattered Clouds
2:50 PM 68.0 °F 46.4 °F 46% 30.04 in 10.0 mi NNW 16.1 mph 19.6 mph N/A   Scattered Clouds
3:45 PM 69.8 °F 46.4 °F 43% 30.05 in 10.0 mi North 13.8 mph 21.9 mph N/A   Partly Cloudy
4:45 PM 68.0 °F 46.4 °F 46% 30.05 in 10.0 mi North 11.5 mph 19.6 mph N/A   Partly Cloudy
5:45 PM 66.2 °F 44.6 °F 46% 30.07 in 10.0 mi North 11.5 mph 19.6 mph N/A   Partly Cloudy
7:45 PM 59.0 °F 41.0 °F 51% 30.10 in 10.0 mi North 6.9 mph - N/A   Clear
9:15 PM 53.6 °F 39.2 °F 58% 30.14 in 10.0 mi North 6.9 mph - N/A   Clear
9:35 PM 53.6 °F 39.2 °F 58% 30.14 in 10.0 mi North 6.9 mph - N/A   Clear
9:55 PM 53.6 °F 39.2 °F 58% 30.15 in 10.0 mi North 9.2 mph - N/A   Clear
10:15 PM 55.4 °F 39.2 °F 54% 30.15 in 10.0 mi North 10.4 mph - N/A   Clear
10:35 PM 55.4 °F 39.2 °F 54% 30.16 in 10.0 mi North 12.7 mph - N/A   Clear
10:55 PM 57.2 °F 39.2 °F 51% 30.16 in 10.0 mi North 11.5 mph - N/A   Clear
11:15 PM 57.2 °F 39.2 °F 51% 30.17 in 10.0 mi NNW 6.9 mph - N/A   Clear
11:35 PM 55.4 °F 39.2 °F 54% 30.17 in 10.0 mi NNW 6.9 mph - N/A   Clear